Date String (YYYY-MM-DD hh:mm:ss) UTC,Instrument flags,Ambient pressure (hPa),Sample flow (lpm),Bypass flow (lpm),Sample temperature (°C),Ambient temperature (°C),ASC tube jacket temperature (°C),LED temperature (°C),Box temperature (°C),Sample RH (%),Span deviation,Mass concentration (μg/m³),Mass concentration (μg/m³),Mass concentration (μg/m³)
DateTimeUTC,F1_M11,P_M11,Q1_M11,Q2_M11,T1_M11,T2_M11,T3_M11,T4_M11,T5_M11,U1_M11,ZSPAN_M11,X2_M11,X0_M11,X1_M11
2023-02-27 12:00:00,,0813.9,5.01,0.00,21.8,20.1,00.0,30.6,23.4,09.6,0000.0,0000.51,0001.05,0000.26
2023-02-27 12:01:00,,0814.1,5.00,0.00,21.8,20.1,00.0,30.6,23.3,09.5,0000.0,0000.54,0001.09,0000.26
2023-02-27 12:02:00,,0814.2,5.00,0.00,21.7,19.9,00.0,30.5,23.3,09.6,0000.0,0000.55,0001.25,0000.26
2023-02-27 12:03:00,,0814.2,5.00,0.00,21.7,19.8,00.0,30.5,23.2,09.6,0000.0,0000.53,0002.07,0000.26
2023-02-27 12:04:00,,0814.3,5.01,0.00,21.6,19.7,00.0,30.5,23.1,09.7,0000.0,0000.52,0002.00,0000.27
2023-02-27 12:05:00,,0814.2,4.98,0.00,21.6,19.6,00.0,30.5,23.1,09.7,0000.0,0000.51,0001.94,0000.27
2023-02-27 12:06:00,,0814.0,5.01,0.00,21.6,20.1,00.0,30.5,23.2,09.8,0000.0,0000.52,0002.05,0000.27
2023-02-27 12:07:00,,0814.1,5.01,0.00,21.7,21.4,00.0,30.5,23.5,09.8,0000.0,0000.53,0002.46,0000.27
2023-02-27 12:08:00,,0814.0,5.01,0.00,21.8,22.7,00.0,30.5,23.8,09.7,0000.0,0000.51,0002.53,0000.27
2023-02-27 12:09:00,,0813.9,4.97,0.00,21.9,22.6,00.0,30.5,23.9,09.6,0000.0,0000.49,0002.50,0000.28
2023-02-27 12:10:00,,0814.0,5.01,0.00,22.0,22.1,00.0,30.6,23.8,09.6,0000.0,0000.49,0002.51,0000.28
2023-02-27 12:11:00,,0814.1,4.99,0.00,22.0,21.6,00.0,30.6,23.7,09.6,0000.0,0000.49,0002.51,0000.28
2023-02-27 12:12:00,,0814.3,5.00,0.00,22.0,21.2,00.0,30.6,23.7,09.7,0000.0,0000.47,0002.66,0000.28
2023-02-27 12:13:00,,0814.2,5.01,0.00,22.0,20.9,00.0,30.6,23.7,09.6,0000.0,0000.47,0003.19,0000.29
2023-02-27 12:14:00,,0814.0,4.99,0.00,21.9,20.7,00.0,30.6,23.6,09.7,0000.0,0000.47,0002.21,0000.29
2023-02-27 12:15:00,,0814.0,5.00,0.00,21.9,20.5,00.0,30.6,23.6,09.5,0000.0,0000.48,0002.24,0000.29
2023-02-27 12:16:00,,0814.0,5.00,0.00,21.9,20.3,00.0,30.6,23.5,09.4,0000.0,0000.46,0002.23,0000.28
2023-02-27 12:17:00,,0814.1,5.00,0.00,21.9,20.1,00.0,30.6,23.4,09.4,0000.0,0000.43,0002.36,0000.27
2023-02-27 12:18:00,,0814.2,5.00,0.00,21.8,20.0,00.0,30.6,23.3,09.3,0000.0,0000.41,0001.98,0000.27
2023-02-27 12:19:00,,0814.1,5.01,0.00,21.7,19.8,00.0,30.6,23.2,09.3,0000.0,0000.44,0001.84,0000.28
2023-02-27 12:20:00,,0814.3,5.01,0.00,21.7,19.7,00.0,30.6,23.2,09.3,0000.0,0000.46,0002.02,0000.28
2023-02-27 12:21:00,,0814.4,5.00,0.00,21.6,19.6,00.0,30.5,23.1,09.3,0000.0,0000.48,0002.09,0000.28
2023-02-27 12:22:00,,0814.4,4.99,0.00,21.6,19.5,00.0,30.5,23.0,09.5,0000.0,0000.47,0002.07,0000.28
2023-02-27 12:23:00,,0814.2,5.00,0.00,21.5,19.5,00.0,30.5,23.0,09.6,0000.0,0000.46,0001.82,0000.28
2023-02-27 12:24:00,,0814.3,5.01,0.00,21.6,20.3,00.0,30.4,23.2,09.7,0000.0,0000.45,0001.33,0000.27
2023-02-27 12:25:00,,0814.3,4.98,0.00,21.7,21.8,00.0,30.4,23.6,09.5,0000.0,0000.44,0001.31,0000.27
2023-02-27 12:26:00,,0814.4,5.03,0.00,21.8,23.0,00.0,30.4,24.0,09.4,0000.0,0000.42,0001.24,0000.27
2023-02-27 12:27:00,,0814.3,5.03,0.00,22.0,23.1,00.0,30.5,24.1,09.3,0000.0,0000.45,0001.27,0000.28
2023-02-27 12:28:00,,0814.4,5.00,0.00,22.0,22.3,00.0,30.6,23.9,09.3,0000.0,0000.48,0001.04,0000.28
2023-02-27 12:29:00,,0814.5,5.01,0.00,22.0,21.6,00.0,30.6,23.8,09.3,0000.0,0000.49,0001.32,0000.28
2023-02-27 12:30:00,,0814.4,5.01,0.00,22.0,21.1,00.0,30.6,23.6,09.4,0000.0,0000.48,0001.93,0000.28
2023-02-27 12:31:00,,0814.4,5.00,0.00,21.9,20.7,00.0,30.6,23.5,09.4,0000.0,0000.45,0001.79,0000.27
2023-02-27 12:32:00,,0814.4,4.99,0.00,21.9,20.4,00.0,30.6,23.4,09.4,0000.0,0000.43,0001.74,0000.27
2023-02-27 12:33:00,,0814.4,5.00,0.00,21.8,20.2,00.0,30.6,23.4,09.2,0000.0,0000.43,0001.73,0000.27
2023-02-27 12:34:00,,0814.4,5.01,0.00,21.8,20.0,00.0,30.6,23.3,09.3,0000.0,0000.44,0001.73,0000.26
2023-02-27 12:35:00,,0814.6,5.00,0.00,21.7,19.9,00.0,30.6,23.2,09.2,0000.0,0000.43,0001.70,0000.27
2023-02-27 12:36:00,,0815.0,5.00,0.00,21.7,19.8,00.0,30.6,23.2,09.3,0000.0,0000.43,0001.69,0000.27
2023-02-27 12:37:00,,0815.0,5.00,0.00,21.7,19.7,00.0,30.5,23.2,09.6,0000.0,0000.43,0001.68,0000.26
2023-02-27 12:38:00,,0815.0,5.00,0.00,21.6,19.6,00.0,30.5,23.1,09.5,0000.0,0000.39,0001.61,0000.26
2023-02-27 12:39:00,,0815.1,5.00,0.00,21.6,19.5,00.0,30.5,23.1,09.6,0000.0,0000.38,0001.64,0000.26
2023-02-27 12:40:00,,0815.0,5.02,0.00,21.6,20.4,00.0,30.5,23.3,09.6,0000.0,0000.39,0001.52,0000.26
2023-02-27 12:41:00,,0815.1,5.00,0.00,21.7,21.8,00.0,30.5,23.6,09.5,0000.0,0000.39,0000.79,0000.26
2023-02-27 12:42:00,,0815.1,5.04,0.00,21.9,22.9,00.0,30.5,23.9,09.5,0000.0,0000.37,0000.70,0000.25
2023-02-27 12:43:00,,0814.9,4.98,0.00,22.0,22.9,00.0,30.6,24.0,09.4,0000.0,0000.38,0000.70,0000.25
2023-02-27 12:44:00,,0815.1,4.98,0.00,22.0,22.3,00.0,30.6,23.9,09.3,0000.0,0000.38,0000.72,0000.25
2023-02-27 12:45:00,,0815.0,4.99,0.00,22.0,21.6,00.0,30.6,23.8,09.1,0000.0,0000.38,0000.71,0000.25
2023-02-27 12:46:00,,0814.9,4.98,0.00,22.0,21.1,00.0,30.6,23.7,09.1,0000.0,0000.37,0000.70,0000.25
2023-02-27 12:47:00,,0814.9,5.00,0.00,22.0,20.7,00.0,30.6,23.6,09.2,0000.0,0000.36,0000.69,0000.24
2023-02-27 12:48:00,,0815.0,4.99,0.00,21.9,20.5,00.0,30.7,23.5,09.3,0000.0,0000.38,0000.82,0000.25
2023-02-27 12:49:00,,0814.8,4.99,0.00,21.9,20.3,00.0,30.7,23.5,09.3,0000.0,0000.41,0000.96,0000.25
2023-02-27 12:50:00,,0814.9,5.00,0.00,21.9,20.2,00.0,30.7,23.4,09.2,0000.0,0000.41,0000.92,0000.25
2023-02-27 12:51:00,,0814.8,5.01,0.00,21.8,20.1,00.0,30.6,23.4,09.2,0000.0,0000.38,0000.85,0000.25
2023-02-27 12:52:00,,0814.9,5.00,0.00,21.8,20.0,00.0,30.6,23.4,09.1,0000.0,0000.36,0000.79,0000.25
2023-02-27 12:53:00,,0815.0,5.00,0.00,21.8,19.9,00.0,30.6,23.3,09.2,0000.0,0000.37,0001.61,0000.26
2023-02-27 12:54:00,,0814.8,5.00,0.00,21.7,19.8,00.0,30.6,23.3,09.2,0000.0,0000.39,0002.64,0000.26
2023-02-27 12:55:00,,0814.8,5.00,0.00,21.7,19.8,00.0,30.6,23.2,09.3,0000.0,0000.40,0002.66,0000.26
2023-02-27 12:56:00,,0814.9,5.01,0.00,21.7,20.0,00.0,30.5,23.2,09.2,0000.0,0000.39,0002.63,0000.25
2023-02-27 12:57:00,,0814.9,4.99,0.00,21.8,21.3,00.0,30.5,23.6,09.2,0000.0,0000.39,0002.62,0000.25
2023-02-27 12:58:00,,0814.9,4.99,0.00,21.9,22.5,00.0,30.5,23.9,09.2,0000.0,0000.41,0002.74,0000.26
2023-02-27 12:59:00,,0814.9,5.00,0.00,22.0,22.6,00.0,30.6,24.0,09.2,0000.0,0000.40,0002.63,0000.26
